Flag for Palestinian Territories Weather past 2 weeks in Nablus, West Bank, Palestinian Territories

72 °F


Feels Like: 77 °F
Forecast: 54 / 72 °F
Wind: 2 mph from North

Location: Ben Gurion International Airport

Current Time: Nov 26, 2015 at 9:04:02 AM

Latest Report: Nov 26, 2015 at 8:20 AM

Visibility: 10 mi

Pressure: 29.95 "Hg (28.15 "Hg at 534m altitude)

Humidity: 47%

Dew point: 50 °F

Location of NablusLocation

Historic Weather in Nablus — Graph


Nablus temperature yesterday

Maximum temperature yesterday: 77 °F (at 11:20 AM)
Minimum temperature yesterday: 55 °F (at 4:20 AM)
Average temperature yesterday: 69 °F

Past Weeks' High & Low Weather Summary

High90 °F (Nov 15, 1:50 PM)94% (Nov 16, 11:20 AM)30.18 "Hg (Nov 16, 11:20 AM)
Low54 °F (Nov 14, 5:20 AM)20% (Nov 14, 10:20 AM)29.74 "Hg (Nov 16, 11:50 AM)
Average68 °F57%30.01 "Hg
* Reported Nov 11 7:20 AM — Nov 26 7:50 AM, Nablus, Weather by CustomWeather, © 2015

Note: Actual official high and low records may vary slightly from our data, if they occured in-between our weather recording intervals... More about our weather records


Nablus weather history for previous 24 hours

Time TempWeatherWind HumidityBarometerVisibility
7:50 AM
Thu, Nov 26
70 °FSunny.6 mph50%29.95 "Hg10 mi
7:20 AM68 °FSunny.3 mph53%29.95 "Hg10 mi
6:50 AM66 °FSunny.3 mph56%29.92 "Hg10 mi
6:20 AM68 °FSunny.6 mph49%29.92 "Hg10 mi
5:50 AM66 °FClear.1 mph56%29.92 "Hg10 mi
5:20 AM66 °FClear.3 mph56%29.92 "Hg10 mi
4:50 AM64 °FClear.2 mph64%29.92 "Hg10 mi
4:20 AM68 °FClear.3 mph53%29.92 "Hg10 mi
3:50 AM70 °FClear.6 mph46%29.92 "Hg10 mi
3:20 AM68 °FClear.2 mph53%29.92 "Hg10 mi
2:20 AM68 °FClear.2 mph49%29.92 "Hg10 mi
1:50 AM72 °FClear.3 mph44%29.92 "Hg10 mi
1:20 AM72 °FClear.7 mph44%29.92 "Hg10 mi
12:50 AM72 °FClear.6 mph44%29.92 "Hg10 mi
12:20 AM72 °FClear.8 mph44%29.92 "Hg10 mi
11:50 PM
Wed, Nov 25
72 °FClear.8 mph44%29.95 "Hg10 mi
11:20 PM72 °FClear.7 mph44%29.95 "Hg10 mi
10:50 PM72 °FClear.8 mph44%29.92 "Hg10 mi
10:20 PM72 °FClear.6 mph44%29.95 "Hg10 mi
9:50 PM73 °FClear.6 mph41%29.95 "Hg10 mi
9:20 PM73 °FClear.13 mph38%29.92 "Hg10 mi
8:50 PM73 °FClear.13 mph38%29.92 "Hg10 mi
8:20 PM73 °FClear.20 mph38%29.92 "Hg10 mi
7:50 PM73 °FClear.24 mph38%29.92 "Hg10 mi
7:20 PM73 °FClear.21 mph38%29.92 "Hg10 mi
6:50 PM73 °FClear.15 mph38%29.95 "Hg10 mi
6:20 PM73 °FClear.10 mph38%29.95 "Hg10 mi
5:50 PM72 °FClear.8 mph44%29.95 "Hg10 mi
5:20 PM72 °FClear.3 mph44%29.98 "Hg10 mi
4:50 PM73 °FClear.6 mph41%29.98 "Hg10 mi
4:20 PM77 °FSunny.8 mph34%29.98 "Hg10 mi
3:50 PM75 °FSunny.6 mph36%29.98 "Hg10 mi
3:20 PM75 °FSunny.7 mph34%30.01 "Hg10 mi
2:50 PM77 °FSunny.6 mph32%30.01 "Hg10 mi
2:20 PM77 °FSunny.12 mph30%30.01 "Hg10 mi
1:50 PM77 °FSunny.12 mph30%30.01 "Hg10 mi
1:20 PM77 °FSunny.18 mph30%30.01 "Hg10 mi
12:50 PM75 °FSunny.16 mph31%30.04 "Hg10 mi
12:20 PM77 °FSunny.16 mph30%30.04 "Hg10 mi
11:50 AM77 °FSunny.15 mph28%30.04 "Hg10 mi
11:20 AM77 °FSunny.15 mph26%30.04 "Hg10 mi
10:50 AM75 °FSunny.17 mph27%30.07 "Hg10 mi
10:20 AM75 °FPassing clouds.8 mph25%30.07 "HgN/A
9:50 AM73 °FSunny.8 mph25%30.07 "Hg10 mi
9:20 AM73 °FSunny.10 mph25%30.07 "Hg10 mi
Weather by CustomWeather, © 2015

See weather overviewHow to use our weather pages